GW6872 Weather Reports


time (UTC)temp
C
wind
direction
speed
KPH
gust
KPH
rain 1hr
cm
rain 24hr
cm
rain mn
cm
humidity
%
barometer
mb
20260510112918 13 41 1.6 1.6 0.00 0.00 0.00 63 1010.5
20260510112419 14 258 0.0 3.2 0.00 0.00 0.00 64 1010.8
20260510111918 13 290 0.0 4.8 0.00 0.00 0.00 66 1010.8
20260510111420 13 222 1.6 3.2 0.00 0.00 0.00 67 1010.8
20260510110920 13 22 0.0 4.8 0.00 0.00 0.00 69 1010.5
20260510110421 13 301 1.6 3.2 0.00 0.00 0.00 69 1010.8
20260510105918 13 296 0.0 3.2 0.00 0.00 0.00 69 1010.8
20260510105418 13 166 1.6 1.6 0.00 0.00 0.00 66 1010.8
20260510104919 13 327 0.0 1.6 0.00 0.00 0.00 65 1011.2
20260510104418 13 70 1.6 3.2 0.00 0.00 0.00 65 1011.2
20260510103918 13 97 3.2 3.2 0.00 0.00 0.00 65 1010.8
20260510103418 13 35 0.0 3.2 0.00 0.00 0.00 65 1010.8
20260510102919 13 215 0.0 3.2 0.00 0.00 0.00 64 1011.2
20260510102418 13 217 0.0 3.2 0.00 0.00 0.00 65 1010.8
20260510101918 13 39 1.6 3.2 0.00 0.00 0.00 66 1010.8
20260510101419 13 25 0.0 3.2 0.00 0.00 0.00 67 1010.8
20260510100918 13 219 1.6 3.2 0.00 0.00 0.00 66 1010.8
20260510100418 13 105 1.6 3.2 0.00 0.00 0.00 66 1010.8
20260510095919 13 94 0.0 3.2 0.00 0.00 0.00 66 1010.8
20260510095419 13 5 0.0 1.6 0.00 0.00 0.00 65 1010.8
20260510094919 13 73 1.6 1.6 0.00 0.00 0.00 66 1010.8
20260510094418 13 342 1.6 1.6 0.00 0.00 0.00 65 1010.8
20260510093918 13 85 0.0 1.6 0.00 0.00 0.00 64 1010.8
20260510093419 13 237 0.0 1.6 0.00 0.00 0.00 64 1010.8
20260510092918 13 29 0.0 1.6 0.00 0.00 0.00 64 1010.8
20260510092418 13 198 0.0 1.6 0.00 0.00 0.00 64 1011.2
20260510091920 13 343 1.6 3.2 0.00 0.00 0.00 65 1011.2
20260510091419 13 191 1.6 4.8 0.00 0.00 0.00 64 1011.2
20260510090919 13 55 1.6 9.7 0.00 0.00 0.00 65 1011.2
20260510090418 13 16 0.0 1.6 0.00 0.00 0.00 66 1010.8
20260510085918 13 340 0.0 3.2 0.00 0.00 0.00 67 1011.2
20260510085419 13 184 4.8 8.0 0.00 0.00 0.00 66 1011.2
20260510084919 13 22 0.0 3.2 0.00 0.00 0.00 67 1011.2
20260510084418 12 309 0.0 3.2 0.00 0.00 0.00 67 1011.2
20260510083919 12 11 1.6 3.2 0.00 0.00 0.00 68 1011.2
20260510083418 12 187 0.0 1.6 0.00 0.00 0.00 68 1011.5
20260510082918 12 358 0.0 3.2 0.00 0.00 0.00 69 1011.5
20260510082419 12 75 1.6 1.6 0.00 0.00 0.00 69 1011.2
20260510081918 12 110 0.0 3.2 0.00 0.00 0.00 69 1011.5
20260510081419 12 65 0.0 1.6 0.00 0.00 0.00 70 1011.2
20260510080918 12 181 0.0 3.2 0.00 0.00 0.00 70 1011.2
20260510080419 12 39 1.6 1.6 0.00 0.00 0.00 71 1011.2
20260510075918 12 104 0.0 1.6 0.00 0.00 0.00 72 1011.2
20260510075418 12 107 1.6 3.2 0.00 0.00 0.00 72 1011.2
20260510074919 12 274 3.2 3.2 0.00 0.00 0.00 73 1011.2
20260510074418 11 110 0.0 3.2 0.00 0.00 0.00 73 1011.5
20260510073919 11 101 1.6 1.6 0.00 0.00 0.00 74 1011.2
20260510073419 11 131 1.6 1.6 0.00 0.00 0.00 74 1011.5
20260510072918 11 341 1.6 1.6 0.00 0.00 0.00 74 1011.5
20260510072419 11 244 0.0 3.2 0.00 0.00 0.00 74 1011.5
20260510071918 11 345 1.6 3.2 0.00 0.00 0.00 75 1011.2
20260510071419 11 186 0.0 3.2 0.00 0.00 0.00 75 1011.2
20260510070918 11 26 1.6 3.2 0.00 0.00 0.00 75 1011.5
20260510070419 11 149 0.0 3.2 0.00 0.00 0.00 76 1011.5
20260510065918 11 287 1.6 3.2 0.00 0.00 0.00 76 1011.5
20260510065420 11 76 0.0 1.6 0.00 0.00 0.00 76 1011.5
20260510064918 11 216 0.0 1.6 0.00 0.00 0.00 77 1011.5
20260510064418 11 174 0.0 1.6 0.00 0.00 0.00 77 1011.5
20260510063918 11 345 0.0 1.6 0.00 0.00 0.00 77 1011.5
20260510063418 11 186 0.0 1.6 0.00 0.00 0.00 78 1011.5
20260510062918 11 286 0.0 3.2 0.00 0.00 0.00 77 1011.5
20260510062418 11 165 0.0 1.6 0.00 0.00 0.00 77 1011.5
20260510061918 11 286 0.0 1.6 0.00 0.00 0.00 77 1011.2
20260510061418 11 252 0.0 1.6 0.00 0.00 0.00 78 1011.2
20260510060918 11 207 0.0 3.2 0.00 0.00 0.00 77 1011.2
20260510060420 11 210 0.0 1.6 0.00 0.00 0.00 78 1011.2
20260510055918 10 99 0.0 1.6 0.00 0.00 0.00 78 1011.2
20260510055419 10 349 1.6 1.6 0.00 0.00 0.00 79 1011.2
20260510054918 10 53 0.0 3.2 0.00 0.00 0.00 79 1011.2
20260510054418 10 101 0.0 4.8 0.00 0.00 0.00 79 1010.8
20260510053919 10 275 0.0 3.2 0.00 0.00 0.00 79 1011.2
20260510053418 10 11 0.0 3.2 0.00 0.00 0.00 80 1011.2
20260510052918 10 256 1.6 1.6 0.00 0.00 0.00 80 1011.2
20260510052418 10 333 0.0 1.6 0.00 0.00 0.00 80 1010.8
20260510051919 10 82 0.0 1.6 0.00 0.00 0.00 80 1010.8
20260510051418 10 61 0.0 4.8 0.00 0.00 0.00 81 1011.2
20260510050918 10 253 0.0 1.6 0.00 0.00 0.00 81 1010.8
20260510050418 10 266 0.0 0.0 0.00 0.00 0.00 81 1011.2
20260510045918 10 59 1.6 1.6 0.00 0.00 0.00 82 1010.8
20260510045418 10 230 0.0 1.6 0.00 0.00 0.00 82 1011.2
20260510044919 10 346 0.0 1.6 0.00 0.00 0.00 82 1011.2
20260510044418 10 44 0.0 1.6 0.00 0.00 0.00 82 1011.2
20260510043919 10 348 0.0 1.6 0.00 0.00 0.00 82 1011.2
20260510043418 10 153 0.0 1.6 0.00 0.00 0.00 82 1011.2
20260510042919 10 112 0.0 1.6 0.00 0.00 0.00 82 1011.2
20260510042418 10 225 0.0 1.6 0.00 0.00 0.00 82 1011.2
20260510041918 10 215 0.0 1.6 0.00 0.00 0.00 82 1011.2
20260510041420 10 309 0.0 1.6 0.00 0.00 0.00 82 1011.2
20260510040918 10 193 1.6 3.2 0.00 0.00 0.00 82 1011.2
20260510040418 10 226 0.0 0.0 0.00 0.00 0.00 82 1011.2
20260510035920 10 224 0.0 3.2 0.00 0.00 0.00 82 1011.2
20260510035418 10 322 0.0 0.0 0.00 0.00 0.00 82 1011.2
20260510034919 10 211 0.0 1.6 0.00 0.00 0.00 82 1011.5
20260510034419 10 100 1.6 1.6 0.00 0.00 0.00 82 1011.2
20260510033918 10 349 0.0 1.6 0.00 0.00 0.00 82 1011.5
20260510033418 10 134 0.0 1.6 0.00 0.00 0.00 82 1011.5
20260510032918 10 241 0.0 3.2 0.00 0.00 0.00 82 1011.5
20260510032420 10 166 0.0 1.6 0.00 0.00 0.00 82 1011.5
20260510031921 10 343 0.0 1.6 0.00 0.00 0.00 82 1011.5
20260510031418 10 1 0.0 1.6 0.00 0.00 0.00 82 1011.5
20260510030919 10 96 1.6 1.6 0.00 0.00 0.00 81 1011.5
20260510030419 10 20 0.0 0.0 0.00 0.00 0.00 81 1011.5
20260510025918 10 279 0.0 1.6 0.00 0.00 0.00 81 1011.9
20260510025418 10 3 0.0 0.0 0.00 0.00 0.00 80 1011.5
20260510024919 10 184 0.0 0.0 0.00 0.00 0.00 80 1011.9
20260510024420 10 237 0.0 0.0 0.00 0.00 0.00 79 1011.5
20260510023918 10 120 0.0 1.6 0.00 0.00 0.00 79 1011.9
20260510023418 10 7 0.0 1.6 0.00 0.00 0.00 79 1011.5
20260510022920 10 262 0.0 1.6 0.00 0.00 0.00 78 1011.5
20260510022420 11 244 0.0 0.0 0.00 0.00 0.00 77 1011.5
20260510021918 11 258 0.0 1.6 0.00 0.00 0.00 78 1011.5
20260510021418 11 20 0.0 4.8 0.00 0.00 0.00 77 1011.5
20260510020918 11 273 0.0 1.6 0.00 0.00 0.00 76 1011.5
20260510020419 11 136 0.0 0.0 0.00 0.00 0.00 77 1011.5
20260510015918 11 249 0.0 0.0 0.00 0.00 0.00 77 1011.5
20260510015418 11 350 0.0 0.0 0.00 0.00 0.00 77 1011.5
20260510014918 11 200 1.6 1.6 0.00 0.00 0.00 77 1011.5
20260510014418 11 228 1.6 4.8 0.00 0.00 0.00 76 1011.5
20260510013918 11 66 1.6 1.6 0.00 0.00 0.00 76 1011.5
20260510013419 11 355 0.0 1.6 0.00 0.00 0.00 76 1011.5
20260510012919 11 267 0.0 1.6 0.00 0.00 0.00 75 1011.9
20260510012418 11 311 0.0 1.6 0.00 0.00 0.00 75 1011.5
20260510011918 11 201 0.0 1.6 0.00 0.00 0.00 74 1011.9
20260510011419 11 181 0.0 3.2 0.00 0.00 0.00 73 1011.5
20260510010918 11 125 0.0 3.2 0.00 0.00 0.00 73 1011.9
20260510010418 11 333 0.0 1.6 0.00 0.00 0.00 72 1011.9
20260510005918 11 215 0.0 1.6 0.00 0.00 0.00 71 1011.5
20260510005418 12 9 0.0 1.6 0.00 0.00 0.00 70 1011.5
20260510004919 12 60 0.0 1.6 0.00 0.00 0.00 69 1011.5
20260510004419 12 339 3.2 4.8 0.00 0.00 0.00 69 1011.5
20260510003918 12 342 1.6 1.6 0.00 0.00 0.00 68 1011.5
20260510003418 12 276 0.0 1.6 0.00 0.00 0.00 67 1011.2
20260510002919 12 273 0.0 1.6 0.00 0.00 0.00 66 1011.5
20260510002418 12 31 0.0 1.6 0.00 0.00 0.00 65 1011.9
20260510001918 12 38 0.0 1.6 0.00 0.00 0.00 64 1011.5
20260510001419 12 100 1.6 1.6 0.00 0.00 0.00 65 1011.5
20260510000918 12 11 0.0 1.6 0.00 0.00 0.00 65 1011.5
20260510000419 12 13 0.0 1.6 0.00 0.00 0.00 66 1011.5
20260509235918 12 51 0.0 1.6 0.00 0.00 0.00 66 1011.5
20260509235419 12 76 0.0 1.6 0.00 0.00 0.00 66 1011.5
20260509234919 12 143 1.6 3.2 0.00 0.00 0.00 66 1011.5
20260509234419 12 222 0.0 1.6 0.00 0.00 0.00 66 1011.5
20260509233919 12 189 1.6 1.6 0.00 0.00 0.00 67 1011.5
20260509233418 13 351 0.0 3.2 0.00 0.00 0.00 67 1011.5
20260509232918 13 117 0.0 1.6 0.00 0.00 0.00 66 1011.5
20260509232420 13 52 0.0 1.6 0.00 0.00 0.00 66 1011.5
20260509231919 13 173 0.0 1.6 0.00 0.00 0.00 64 1011.5
20260509231418 13 207 0.0 0.0 0.00 0.00 0.00 64 1011.5
20260509230919 13 49 0.0 1.6 0.00 0.00 0.00 64 1011.5
20260509230418 13 354 0.0 3.2 0.00 0.00 0.00 63 1011.5
20260509225918 13 4 0.0 1.6 0.00 0.00 0.00 62 1011.9
20260509225418 13 348 0.0 1.6 0.00 0.00 0.00 61 1011.5
20260509224919 13 129 0.0 3.2 0.00 0.00 0.00 60 1011.9
20260509224418 13 149 1.6 3.2 0.00 0.00 0.00 59 1011.5
20260509223919 13 326 0.0 1.6 0.00 0.00 0.00 59 1011.5
20260509223418 14 278 0.0 3.2 0.00 0.00 0.00 58 1011.5
20260509222918 14 122 1.6 1.6 0.00 0.00 0.00 57 1011.5
20260509222420 14 346 0.0 1.6 0.00 0.00 0.00 57 1011.5
20260509221918 14 30 1.6 3.2 0.00 0.00 0.00 57 1011.5
20260509221418 14 251 0.0 1.6 0.00 0.00 0.00 57 1011.5
20260509220920 14 197 0.0 1.6 0.00 0.00 0.00 56 1011.5
20260509220419 15 266 0.0 0.0 0.00 0.00 0.00 56 1011.5
20260509215918 15 321 0.0 1.6 0.00 0.00 0.00 56 1011.5
20260509215418 15 224 0.0 1.6 0.00 0.00 0.00 56 1011.5
20260509214918 15 230 1.6 1.6 0.00 0.00 0.00 56 1011.9
20260509214419 14 327 0.0 3.2 0.00 0.00 0.00 56 1011.5
20260509213919 14 300 1.6 3.2 0.00 0.00 0.00 55 1011.5
20260509213418 15 328 0.0 1.6 0.00 0.00 0.00 55 1011.5
20260509212919 15 320 0.0 1.6 0.00 0.00 0.00 55 1011.5
20260509212418 15 335 0.0 3.2 0.00 0.00 0.00 54 1011.5
20260509211918 15 328 1.6 1.6 0.00 0.00 0.00 53 1011.5
20260509211419 15 136 0.0 1.6 0.00 0.00 0.00 53 1011.5
20260509210919 15 281 0.0 1.6 0.00 0.00 0.00 52 1011.5
20260509210418 15 230 0.0 0.0 0.00 0.00 0.00 51 1011.2
20260509205922 16 173 0.0 0.0 0.00 0.00 0.00 50 1011.2
20260509205419 16 293 0.0 0.0 0.00 0.00 0.00 49 1011.2
20260509204918 16 53 0.0 1.6 0.00 0.00 0.00 49 1011.2
20260509204419 16 275 0.0 0.0 0.00 0.00 0.00 49 1011.2
20260509203918 16 153 0.0 1.6 0.00 0.00 0.00 48 1011.2
20260509203418 16 261 0.0 0.0 0.00 0.00 0.00 47 1011.2
20260509202919 16 293 1.6 1.6 0.00 0.00 0.00 46 1011.2
20260509202418 16 310 1.6 1.6 0.00 0.00 0.00 46 1011.2
20260509201919 16 235 0.0 0.0 0.00 0.00 0.00 46 1011.2
20260509201418 16 302 1.6 3.2 0.00 0.00 0.00 45 1010.8
20260509200919 16 11 0.0 0.0 0.00 0.00 0.00 45 1011.2
20260509200419 16 288 0.0 1.6 0.00 0.00 0.00 45 1010.8
20260509195920 16 340 0.0 1.6 0.00 0.00 0.00 44 1010.8
20260509195418 16 279 1.6 1.6 0.00 0.00 0.00 44 1011.2
20260509194918 16 319 3.2 4.8 0.00 0.00 0.00 44 1011.2
20260509194418 16 331 1.6 8.0 0.00 0.00 0.00 43 1011.2
20260509193919 17 330 0.0 1.6 0.00 0.00 0.00 42 1011.2
20260509193418 17 336 1.6 1.6 0.00 0.00 0.00 41 1010.8
20260509192921 17 322 1.6 3.2 0.00 0.00 0.00 41 1010.8
20260509192419 17 344 1.6 3.2 0.00 0.00 0.00 40 1010.8
20260509191918 17 322 0.0 3.2 0.00 0.00 0.00 40 1010.5
20260509191418 17 89 0.0 3.2 0.00 0.00 0.00 42 1010.8
20260509190919 17 307 0.0 3.2 0.00 0.00 0.00 41 1010.5
20260509190418 17 14 1.6 4.8 0.00 0.00 0.00 40 1010.5
20260509185920 17 318 0.0 3.2 0.00 0.00 0.00 40 1010.8
20260509185418 18 87 1.6 1.6 0.00 0.00 0.00 39 1010.5
20260509184918 17 331 1.6 3.2 0.00 0.00 0.00 39 1010.5
20260509184418 17 10 0.0 3.2 0.00 0.00 0.00 40 1010.5
20260509183918 18 142 0.0 1.6 0.00 0.00 0.00 40 1010.5
20260509183418 18 290 0.0 1.6 0.00 0.00 0.00 40 1010.5
20260509182918 18 93 0.0 1.6 0.00 0.00 0.00 40 1010.5
20260509182419 18 250 0.0 4.8 0.00 0.00 0.00 40 1010.5
20260509181918 18 44 3.2 9.7 0.00 0.00 0.00 39 1010.5
20260509181418 19 334 4.8 9.7 0.00 0.00 0.00 39 1010.8
20260509180919 20 235 0.0 1.6 0.00 0.00 0.00 37 1010.5
20260509180418 20 338 0.0 4.8 0.00 0.00 0.00 36 1010.5
20260509175918 20 325 1.6 3.2 0.00 0.00 0.00 36 1010.2
20260509175418 20 208 0.0 3.2 0.00 0.00 0.00 36 1010.5
20260509174919 20 329 0.0 3.2 0.00 0.00 0.00 36 1010.2
20260509174420 21 343 1.6 4.8 0.00 0.00 0.00 35 1010.2
20260509173919 21 303 1.6 3.2 0.00 0.00 0.00 34 1010.2
20260509173419 22 317 3.2 4.8 0.00 0.00 0.00 34 1010.2
20260509172921 22 186 0.0 4.8 0.00 0.00 0.00 35 1010.2
20260509172421 22 105 1.6 1.6 0.00 0.00 0.00 35 1010.5
20260509171921 22 10 0.0 3.2 0.00 0.00 0.00 36 1010.5
20260509171423 22 354 0.0 1.6 0.00 0.00 0.00 36 1010.5
20260509170919 22 357 0.0 8.0 0.00 0.00 0.00 37 1010.5
20260509170418 22 292 0.0 1.6 0.00 0.00 0.00 36 1010.5
20260509165919 22 330 0.0 3.2 0.00 0.00 0.00 36 1010.5
20260509165419 22 103 1.6 3.2 0.00 0.00 0.00 36 1010.2
20260509164920 23 313 0.0 11.3 0.00 0.00 0.00 35 1010.5
20260509164030 23 317 1.6 3.2 0.00 0.00 0.00 33 1010.2
20260509163418 23 1 0.0 3.2 0.00 0.00 0.00 35 1010.2
20260509162919 23 334 3.2 9.7 0.00 0.00 0.00 34 1010.2
20260509162419 23 9 4.8 4.8 0.00 0.00 0.00 34 1010.2
20260509161918 22 346 3.2 3.2 0.00 0.00 0.00 35 1010.2
20260509161419 23 304 3.2 9.7 0.00 0.00 0.00 36 1010.5
20260509160920 23 278 0.0 4.8 0.00 0.00 0.00 34 1010.5
20260509160419 23 306 0.0 0.0 0.00 0.00 0.00 36 1010.5
20260509155920 22 223 0.0 1.6 0.00 0.00 0.00 38 1010.5
20260509155419 22 316 3.2 9.7 0.00 0.00 0.00 37 1010.5
20260509154920 23 174 0.0 4.8 0.00 0.00 0.00 36 1010.5
20260509154419 22 343 0.0 4.8 0.00 0.00 0.00 37 1010.8
20260509153920 22 302 3.2 9.7 0.00 0.00 0.00 39 1010.8
20260509153418 22 284 1.6 11.3 0.00 0.00 0.00 38 1010.5
20260509152920 23 306 1.6 4.8 0.00 0.00 0.00 36 1010.5
20260509152420 23 283 3.2 4.8 0.00 0.00 0.00 34 1010.8
20260509151920 23 250 0.0 1.6 0.00 0.00 0.00 35 1010.5
20260509151418 22 106 0.0 8.0 0.00 0.00 0.00 37 1010.8
20260509150453 22 305 3.2 14.5 0.00 0.00 0.00 37 1010.8
20260509145921 22 305 0.0 8.0 0.00 0.00 0.00 37 1010.8
20260509145418 22 125 3.2 11.3 0.00 0.00 0.00 38 1010.5
20260509144919 21 279 1.6 9.7 0.00 0.00 0.00 39 1010.5
20260509144420 21 118 1.6 11.3 0.00 0.00 0.00 39 1010.5
20260509143921 21 134 1.6 8.0 0.00 0.00 0.00 39 1010.5
20260509143419 22 146 3.2 9.7 0.00 0.00 0.00 37 1010.2
20260509142918 22 109 1.6 8.0 0.00 0.00 0.00 36 1010.2
20260509142419 22 333 1.6 9.7 0.00 0.00 0.00 37 1010.2
20260509141920 22 316 1.6 8.0 0.00 0.00 0.00 37 1010.2
20260509141419 22 14 3.2 11.3 0.00 0.00 0.00 36 1010.2
20260509140920 22 79 0.0 4.8 0.00 0.00 0.00 36 1010.2
20260509140418 22 303 1.6 9.7 0.00 0.00 0.00 36 1010.2
20260509135918 22 301 3.2 4.8 0.00 0.00 0.00 36 1010.2
20260509135420 22 314 1.6 3.2 0.00 0.00 0.00 35 1010.2
20260509134920 22 303 4.8 9.7 0.00 0.00 0.00 37 1010.5
20260509134419 22 326 3.2 9.7 0.00 0.00 0.00 37 1010.5
20260509133919 22 198 0.0 4.8 0.00 0.00 0.00 37 1010.2
20260509133419 23 33 4.8 8.0 0.00 0.00 0.00 36 1010.5
20260509132920 23 259 0.0 4.8 0.00 0.00 0.00 34 1010.2
20260509132418 23 329 0.0 1.6 0.00 0.00 0.00 34 1010.5
20260509131918 23 74 1.6 3.2 0.00 0.00 0.00 34 1010.5
20260509131419 23 142 0.0 1.6 0.00 0.00 0.00 35 1010.5
20260509130920 23 97 0.0 1.6 0.00 0.00 0.00 36 1010.2
20260509130420 22 193 0.0 1.6 0.00 0.00 0.00 37 1010.5
20260509125920 22 226 0.0 4.8 0.00 0.00 0.00 39 1010.5
20260509125421 22 23 1.6 1.6 0.00 0.00 0.00 38 1010.5
20260509124919 21 234 1.6 4.8 0.00 0.00 0.00 38 1010.5
20260509124419 21 70 0.0 3.2 0.00 0.00 0.00 40 1010.5
20260509123919 20 331 4.8 8.0 0.00 0.00 0.00 40 1010.8
20260509123419 20 5 1.6 3.2 0.00 0.00 0.00 42 1010.8
20260509122918 20 263 0.0 4.8 0.00 0.00 0.00 43 1010.5
20260509122420 19 227 0.0 0.0 0.00 0.00 0.00 44 1010.8
20260509121919 20 272 1.6 4.8 0.00 0.00 0.00 44 1010.5
20260509121418 20 201 1.6 3.2 0.00 0.00 0.00 44 1010.8
20260509120918 19 26 1.6 1.6 0.00 0.00 0.00 45 1010.8
20260509120421 20 348 0.0 9.7 0.00 0.00 0.00 45 1010.8
20260509115918 20 8 0.0 1.6 0.00 0.00 0.00 45 1011.2
20260509115419 20 316 3.2 8.0 0.00 0.00 0.00 45 1011.2
20260509114918 20 126 0.0 1.6 0.00 0.00 0.00 45 1011.2
20260509114418 20 243 0.0 1.6 0.00 0.00 0.00 45 1011.2
20260509113920 20 213 0.0 1.6 0.00 0.00 0.00 45 1011.5